{"data":{"norad_id":53130,"intl_designator":"2022-082C","name":"SUPERVIEW NEO-2 02","alt_names":[],"object_type":"PAYLOAD","status":"ACTIVE","operator":null,"country":"PRC","launch_date":"2022-07-15","launch_site_code":"TAISC","launch_vehicle":null,"mission":null,"orbit_class":"UNKNOWN","rcs_meters":null,"size_class":null,"mass_kg":null,"dimensions":null,"purposes":[],"wikipedia_slug":null,"has_3d_model":false,"image_url":null,"decayed_at":null,"tle_current":{"epoch":"2026-09-20T22:57:46.814112Z","epoch_age_seconds":98231,"freshness":"FRESH","line1":"1 53130U 22082C   26263.95679183  .00003094  00000+0  12875-3 0  9994","line2":"2 53130  97.3938 272.7260 0001731  88.7230 271.4206 15.24502974232805","mean_motion":15.24502974,"eccentricity":0.0001731,"inclination_deg":97.3938,"raan_deg":272.726,"arg_perigee_deg":88.723,"mean_anomaly_deg":271.4206,"bstar":0.00012875,"rev_number":23280,"period_min":94.457014814587,"perigee_km":491.08904380078,"apogee_km":493.46758158203,"semimajor_km":6870.4153126914,"source":"CELESTRAK","updated_at":"2026-09-21T09:00:08.875484Z"}}}